Location: ????????
(55.7667°N, 37.4833°E)
Time: 06:01:03
(UTC+00:00)

Cosmos 1992 Rocket - Pass Details

Date: 19 May 2025
Orbit: 755 x 761 km, 74.0° (Epoch: 15 June)

Event Time Altitude Azimuth Distance (km) Brightness Sun altitude
Rises 23:31:55 0° 331° (NNW) 3,234 7.7 -9.7°
Reaches altitude 10° 23:34:18 10° 331° (NNW) 2,303 6.9 -9.6°
Maximum altitude 23:39:32 83° 245° (WSW) 771 4.0 -9.2°
Drops below altitude 10° 23:44:43 10° 157° (SSE) 2,284 6.1 -8.8°
Sets 23:47:05 0° 157° (SSE) 3,204 6.9 -8.6°
